Weather History for Nellis AFB, NV

Change the Weather History Date:

Saturday, May 3, 2014

  Actual Average Record
Temperature  
Mean Temperature 80 °F -  
Max Temperature 96 °F 83 °F 100 °F (2000)
Min Temperature 65 °F 58 °F 49 °F (2011)
Cooling Degree Days 16    
Growing Degree Days 30 (Base 50)    
Moisture  
Dew Point 11 °F    
Average Humidity 7    
Maximum Humidity 14    
Minimum Humidity 4    
Precipitation  
Precipitation 0.00 in - - ()
Sea Level Pressure  
Sea Level Pressure 29.78 in    
Wind  
Wind Speed 11 mph (South)    
Max Wind Speed 28 mph    
Max Gust Speed 37 mph    
Visibility 10 miles    
Events      
Averages and records for this station are not official NWS values.
T = Trace of Precipitation, MM = Missing Value Source: NWS Daily Summary

Daily Weather History Graph

Daily Weather History Graph

Search for Another Location

Airport:

Trip Planner

Search our weather history database for the weather conditions in past years. The results will help you decide how hot, cold, wet, or windy it might be!

Date:

Astronomy

May. 03, 2014 Rise Set
Actual Time 5:44 AM PDT 7:29 PM PDT
Civil Twilight 5:17 AM PDT 7:57 PM PDT
Nautical Twilight 4:43 AM PDT 8:30 PM PDT
Astronomical Twilight 4:08 AM PDT 9:06 PM PDT
Moon 9:19 AM PDT (5/3) 11:37 PM PDT (5/3)
Length of Visible Light 14h 40m
Length of Day
13h 44m
Waxing Crescent, 20% of the Moon is Illuminated
May 3
Waxing Crescent
May 6
First Quarter
May 14
Full
May 21
Last Quarter
May 28
New

Hourly Weather History & Observations

Time (PDT) Temp. Dew Point Humidity Pressure Visibility Wind Dir Wind Speed Gust Speed Precip Events Conditions
12:58 AM 70.2 °F 13.6 °F 11% 29.82 in 10.0 mi NE 4.6 mph - N/A   Clear
1:58 AM 68.9 °F 12.6 °F 11% 29.81 in 10.0 mi NNE 4.6 mph - N/A   Clear
2:58 AM 67.5 °F 13.5 °F 12% 29.81 in 10.0 mi NNE 3.5 mph - N/A   Clear
3:58 AM 67.1 °F 14.9 °F 13% 29.82 in 10.0 mi ENE 3.5 mph - N/A   Clear
4:58 AM 65.5 °F 14.9 °F 14% 29.82 in 10.0 mi NE 6.9 mph - N/A   Clear
5:58 AM 66.0 °F 15.8 °F 14% 29.83 in 10.0 mi ENE 6.9 mph - N/A   Clear
6:58 AM 72.7 °F 17.6 °F 12% 29.85 in 10.0 mi NE 8.1 mph - N/A   Clear
7:58 AM 76.3 °F 18.5 °F 11% 29.86 in 10.0 mi NNE 5.8 mph - N/A   Clear
8:58 AM 82.0 °F 15.6 °F 8% 29.84 in 10.0 mi ENE 6.9 mph - N/A   Clear
9:58 AM 85.5 °F 15.1 °F 7% 29.85 in 10.0 mi SSE 8.1 mph - N/A   Clear
10:58 AM 89.1 °F 14.4 °F 6% 29.82 in 10.0 mi SE 9.2 mph - N/A   Clear
11:20 AM 91.4 °F 12.2 °F 5% 29.88 in 10.0 mi South 19.6 mph 27.6 mph N/A   Clear
11:58 AM 93.0 °F 13.1 °F 5% 29.81 in 10.0 mi South 20.7 mph 26.5 mph N/A   Clear
12:23 PM 93.2 °F 14.0 °F 5% 29.86 in 10.0 mi SW 18.4 mph 27.6 mph N/A   Clear
12:58 PM 94.5 °F 9.0 °F 4% 29.78 in 10.0 mi SSW 20.7 mph 29.9 mph N/A   Partly Cloudy
1:16 PM 95.0 °F 10.4 °F 4% 29.84 in 10.0 mi SW 23.0 mph 31.1 mph N/A   Clear
1:58 PM 95.7 °F -0.0 °F 4% 29.75 in 10.0 mi SW 27.6 mph 36.8 mph N/A   Clear
2:58 PM 95.0 °F -4.0 °F 4% 29.73 in 10.0 mi SSW 24.2 mph 32.2 mph N/A   Clear
3:43 PM 96.8 °F 3.2 °F 4% 29.78 in 10.0 mi WSW 25.3 mph 32.2 mph N/A   Clear
3:58 PM 96.3 °F 3.9 °F 4% 29.71 in 10.0 mi SW 24.2 mph 28.8 mph N/A   Clear
4:58 PM 95.4 °F 9.7 °F 4% 29.70 in 10.0 mi SSW 20.7 mph 28.8 mph N/A   Clear
5:58 PM 92.8 °F 1.6 °F 4% 29.68 in 10.0 mi SW 21.9 mph - N/A   Clear
6:58 PM 90.5 °F 11.1 °F 5% 29.68 in 10.0 mi SSW 16.1 mph - N/A   Clear
7:58 PM 86.4 °F 8.1 °F 5% 29.68 in 10.0 mi SW 13.8 mph - N/A   Clear
8:58 PM 84.7 °F 7.0 °F 5% 29.70 in 10.0 mi South 8.1 mph - N/A   Clear
9:58 PM 82.8 °F 9.7 °F 6% 29.72 in 10.0 mi SSW 12.7 mph - N/A   Clear
10:58 PM 82.6 °F 9.5 °F 6% 29.73 in 10.0 mi SSW 12.7 mph - N/A   Clear
11:58 PM 82.0 °F 9.0 °F 6% 29.74 in 10.0 mi South 10.4 mph - N/A   Clear